COSMOS 1791

Satellite information

Favourite Embed

Satellite Type and Status

PAYLOADIN ORBIT

Key statistics

Satellite COSMOS 1791 at a glance.

Uptime

14114

Days in orbit

Revolutions

≈ 13.8

Per day

Orbit

LEO

Low Earth Orbit

Inclination

82.9

Latest

Satellite identification and parameters

Extended collection of information and parameters for COSMOS 1791.

Object identification

Identified? True

Debris? False

Object name: COSMOS 1791

International designator: 1986-086A

Object number (NORAD): 17066

Object ID (CCSDS): 17066

Country: COMMONWEALTH OF INDEPENDENT STATES (CIS)

Current information (Y/N): Y

RCS size: LARGE

Orbital parameters

Period: 104.65 minutes

Inclination: 82.9475 deg

SMA: 7356.197 km

Apoapsis: 1008.936 km

Periapsis: 947.188 km

RAAN: 159.1445 deg

Eccentricy: 0.004197

Argument of periapsis: 129.1313 deg

Mean anomaly: 44.8163 deg

Mean motion: 13.76013536 rev/day

Mean motion (dot): 0.00000083 rev/day2

B* drag term: 0.000068801 1/REarth

Two-line elements (TLE)

Creation date: July 4, 2025, 10:36 p.m.

Reference frame: TEME

Reference center: EARTH

Epoch: July 4, 2025, 5:10 p.m. UTC

TLE line 0: 0 COSMOS 1791

TLE line 1: 1 17066U 86086A 25185.71574681 .00000083 00000-0 68801-4 0 9996

TLE line 2: 2 17066 82.9475 159.1445 0041970 129.1313 44.8163 13.76013536940405

Live tracking on map

Real-time ground track for satellite COSMOS 1791.

In-orbit conjunctions

A list of the most updated potential collisions computed for object COSMOS 1791.

Target Orbit TCA Probability of collision Miss distance Type
FENGYUN 1C DEB SSO 2024-10-12 02:26:49 0.0001379169 828.0 (m) DEBRIS

Associated space launch

Civilian navigation satellite equivalent to the purely military Parus

COSMOS 1791 was lifted into orbit during the mission ‘Kosmos-3M | Tsikada 14’, on board a Kosmos-3M space rocket.

The launch took place on Nov. 13, 1986, 6:10 a.m. from 132/2.

For more information about the launch, click the button.

Launch to space Kosmos-3M | Tsikada 14
Kosmos-3M | Tsikada 14

Agency: N/A

Status: Launch Successful

Launch date: Nov. 13, 1986, 6:10 a.m. UTC

Rocket: Kosmos-3M

Launch pad: 132/2

Location: Plesetsk Cosmodrome, Russian Federation

...

Latest news about this satellite

There are no fresh news available about this satellite. Check back as we update our databases every day.


Newsletter sign-up

Weekly statistics, charts and insights to help you stay on top of the space industry.